Temperature
3 3 2 2 2 1 1 1 -0 -1 -2 -2 -3 -4 -4 -5 -5 -5 -6 -6 -6 -6 -6 -6 -6 -6 -5 -5 -5 -4 -4 -4 -3 -2 -2 -1 -0 1 2 3 4 6 8
3 2 2 2 1 1 0 -0 -1 -2 -3 -4 -4 -5 -5 -5 -6 -6 -6 -6 -6 -7 -7 -7 -7 -7 -6 -6 -5 -5 -5 -4 -4 -3 -3 -2 -1 0 1 2 4 5 6
3 2 2 1 1 -0 -1 -1 -2 -3 -4 -5 -5 -5 -5 -5 -6 -6 -6 -7 -7 -7 -7 -8 -8 -8 -7 -7 -6 -6 -6 -5 -5 -4 -4 -3 -2 -1 0 2 3 4 5
2 2 1 1 0 -1 -1 -2 -3 -3 -4 -5 -5 -5 -5 -5 -6 -6 -6 -7 -7 -8 -8 -8 -8 -8 -8 -8 -7 -7 -6 -6 -5 -5 -4 -3 -3 -2 -0 1 2 3 4
2 2 1 0 -0 -1 -2 -3 -3 -4 -5 -6 -6 -5 -5 -5 -5 -6 -7 -7 -8 -8 -8 -8 -9 -9 -9 -9 -8 -7 -7 -6 -6 -5 -5 -4 -3 -2 -1 0 1 3 4
2 1 1 0 -1 -1 -2 -3 -4 -4 -5 -6 -7 -6 -5 -5 -5 -6 -7 -7 -8 -8 -8 -9 -9 -9 -9 -9 -9 -8 -8 -7 -6 -6 -5 -4 -3 -2 -1 -0 1 2 3
2 1 1 0 -1 -1 -2 -3 -4 -4 -4 -6 -7 -7 -6 -5 -6 -6 -7 -7 -8 -8 -9 -9 -9 -9 -9 -9 -9 -9 -9 -8 -7 -6 -5 -5 -4 -3 -2 -0 1 2 3
2 1 1 0 -1 -2 -2 -3 -4 -5 -5 -6 -8 -9 -9 -8 -8 -8 -7 -8 -8 -8 -9 -9 -9 -9 -10 -10 -10 -10 -9 -8 -7 -6 -5 -5 -4 -3 -2 -1 1 2 3
2 1 1 0 -1 -2 -2 -3 -4 -5 -6 -6 -7 -9 -10 -10 -11 -9 -8 -8 -8 -9 -9 -9 -9 -10 -10 -10 -10 -10 -9 -9 -8 -7 -6 -5 -4 -3 -2 -1 1 2 3
2 1 1 -0 -1 -2 -2 -3 -4 -5 -6 -6 -7 -8 -9 -10 -11 -11 -10 -9 -9 -9 -9 -9 -10 -10 -10 -10 -10 -10 -10 -9 -8 -7 -6 -5 -4 -3 -2 -1 1 2 3
2 1 0 -0 -1 -2 -2 -3 -4 -5 -6 -7 -8 -8 -9 -10 -10 -12 -12 -10 -10 -10 -10 -10 -10 -10 -10 -10 -10 -10 -10 -10 -9 -8 -7 -6 -5 -3 -2 -1 0 2 3
2 1 0 -0 -1 -2 -2 -3 -4 -5 -6 -7 -7 -8 -9 -10 -10 -11 -12 -11 -11 -10 -10 -11 -11 -10 -10 -11 -11 -11 -11 -10 -9 -8 -7 -7 -6 -5 -3 -2 -0 1 2
2 1 0 -0 -1 -2 -3 -3 -4 -5 -6 -7 -7 -8 -9 -9 -9 -10 -11 -11 -11 -11 -11 -11 -11 -11 -11 -11 -11 -11 -11 -10 -10 -9 -8 -7 -6 -5 -4 -3 -1 0 2
2 1 0 -0 -1 -2 -3 -3 -4 -5 -5 -6 -7 -8 -8 -9 -9 -10 -10 -11 -12 -11 -11 -11 -11 -11 -11 -11 -11 -11 -11 -10 -10 -9 -9 -8 -7 -6 -5 -4 -3 -1 0
2 1 0 -0 -1 -2 -3 -3 -4 -4 -5 -6 -7 -8 -8 -8 -9 -9 -9 -10 -12 -12 -11 -11 -11 -11 -11 -11 -11 -11 -11 -10 -10 -9 -9 -8 -7 -7 -6 -5 -4 -2 -1
2 1 0 -0 -1 -2 -3 -3 -4 -4 -5 -6 -7 -8 -8 -8 -9 -9 -9 -10 -11 -12 -12 -11 -11 -11 -11 -11 -11 -11 -11 -11 -10 -10 -9 -9 -8 -7 -6 -5 -4 -3 -2
2 1 0 -1 -1 -2 -2 -3 -4 -4 -5 -6 -7 -8 -8 -8 -9 -9 -9 -10 -11 -11 -12 -12 -11 -11 -11 -11 -11 -11 -11 -11 -10 -10 -10 -9 -8 -7 -6 -5 -5 -4 -2
1 1 -0 -1 -1 -2 -2 -3 -4 -4 -5 -6 -7 -7 -8 -8 -9 -9 -9 -10 -11 -11 -12 -12 -11 -11 -11 -11 -11 -11 -11 -11 -11 -10 -10 -9 -8 -8 -7 -6 -5 -4 -3
1 0 -0 -1 -1 -2 -2 -3 -3 -4 -5 -6 -7 -8 -8 -8 -9 -9 -10 -10 -10 -11 -11 -11 -11 -11 -11 -11 -11 -11 -11 -11 -11 -11 -10 -10 -9 -8 -7 -6 -5 -4 -3
1 0 -0 -1 -1 -2 -2 -3 -4 -4 -5 -6 -7 -7 -8 -8 -9 -9 -10 -10 -10 -10 -10 -11 -11 -11 -11 -11 -11 -12 -12 -12 -12 -11 -11 -10 -9 -8 -7 -6 -5 -4 -3
1 0 -1 -1 -2 -2 -2 -3 -4 -4 -5 -6 -7 -7 -8 -8 -9 -9 -10 -10 -10 -10 -10 -10 -10 -11 -11 -11 -11 -12 -12 -12 -12 -12 -11 -10 -9 -8 -7 -6 -5 -4 -3
1 -0 -1 -1 -2 -2 -2 -3 -4 -5 -5 -6 -7 -7 -8 -8 -9 -9 -10 -10 -10 -9 -9 -10 -10 -11 -11 -11 -11 -12 -12 -12 -12 -12 -11 -11 -10 -9 -7 -6 -5 -4 -3
0 -0 -1 -1 -2 -2 -3 -3 -4 -5 -6 -7 -7 -8 -8 -8 -9 -9 -9 -9 -9 -9 -10 -10 -11 -11 -11 -11 -12 -12 -12 -12 -12 -12 -12 -11 -10 -9 -7 -6 -5 -4 -3
0 -0 -1 -1 -2 -2 -3 -3 -4 -5 -6 -6 -7 -8 -8 -8 -9 -9 -9 -9 -9 -10 -10 -11 -11 -11 -11 -11 -11 -11 -12 -12 -12 -12 -12 -12 -10 -9 -8 -6 -5 -4 -3
0 -0 -1 -2 -2 -2 -3 -4 -4 -5 -5 -6 -7 -8 -8 -9 -9 -9 -9 -9 -9 -10 -10 -11 -11 -11 -11 -12 -12 -12 -12 -12 -12 -12 -12 -12 -11 -10 -8 -6 -5 -4 -3
0 -1 -1 -2 -2 -3 -3 -4 -4 -5 -5 -6 -7 -8 -8 -9 -9 -9 -9 -9 -10 -10 -10 -11 -11 -11 -11 -12 -12 -13 -13 -13 -13 -13 -12 -12 -11 -10 -8 -6 -5 -4 -3
Wind_Speed
8 5 2 1 3 5 6 8 9 11 12 13 14 14 16 18 18 18 17 21 22 23 24 26 28 29 30 32 32 33 34 35 35 35 35 36 37 37 37 36 35 34 33
10 7 5 2 2 3 4 6 8 9 10 11 13 15 16 18 17 18 19 19 20 22 23 25 27 29 31 32 33 34 35 35 36 36 36 37 38 38 38 37 37 36 35
12 10 7 6 6 5 6 7 9 9 8 9 10 14 15 16 17 18 19 18 18 19 22 25 27 29 30 32 33 35 35 36 37 37 37 38 38 39 39 39 38 37 36
15 12 9 9 9 8 7 7 7 4 5 5 6 10 13 15 17 18 18 17 17 17 19 24 27 28 30 32 34 35 36 37 37 38 38 38 39 40 40 40 39 38 37
17 15 12 12 10 9 8 8 5 4 5 6 7 7 9 11 15 17 15 16 17 17 18 21 25 27 29 31 33 35 36 37 38 38 38 39 39 40 41 41 40 39 38
19 17 14 13 11 8 6 6 5 5 5 6 8 9 8 11 13 12 13 14 15 17 19 20 21 23 27 31 33 34 36 37 38 39 39 39 40 40 41 41 41 40 39
19 18 13 12 11 7 6 6 4 5 5 4 4 6 8 9 9 7 10 11 13 16 18 18 19 20 22 28 31 34 36 37 38 39 39 39 39 39 40 41 41 40 39
20 17 15 12 11 7 7 6 6 3 4 3 3 4 5 4 4 8 7 8 10 14 14 18 19 21 22 23 27 33 35 36 38 39 39 38 39 39 39 40 41 40 40
20 19 17 15 12 9 7 7 7 6 5 4 4 3 3 5 6 5 7 8 8 7 11 16 19 20 22 23 25 28 33 35 38 39 39 39 37 37 37 38 39 40 39
19 19 18 16 14 11 7 8 7 6 6 6 4 6 7 6 5 7 5 5 8 10 10 14 17 20 23 23 25 30 33 35 38 39 39 38 37 35 35 36 36 38 38
17 18 18 16 13 11 10 9 7 7 6 7 6 5 7 7 8 8 14 13 9 8 9 9 13 18 22 23 23 27 33 35 37 38 38 38 36 35 32 31 32 33 36
9 15 17 16 15 12 11 10 9 9 8 9 8 7 6 7 7 8 11 17 18 12 9 9 10 15 20 21 24 30 33 35 36 37 37 36 35 34 32 29 29 28 28
9 12 14 13 12 14 14 13 8 9 9 10 10 9 9 10 10 11 13 17 20 17 10 9 10 14 18 19 21 30 32 33 34 36 36 36 35 34 32 31 28 26 24
12 10 14 14 14 14 14 12 8 9 8 10 12 11 10 11 10 11 12 15 19 20 14 9 7 10 15 18 23 30 26 32 34 35 35 35 34 33 31 31 28 26 24
10 12 13 12 13 13 12 10 9 10 9 10 11 12 11 11 11 11 12 13 14 19 22 12 6 7 12 17 23 23 22 29 34 35 34 34 33 32 31 30 28 26 24
11 11 12 12 11 10 11 9 9 10 10 11 10 11 12 11 11 12 13 13 14 17 21 15 11 10 12 17 24 23 22 32 33 34 33 32 32 31 30 29 28 26 24
14 14 13 12 12 11 10 10 11 10 11 12 12 12 15 13 12 12 12 13 14 14 19 19 14 12 13 15 16 18 21 20 22 31 32 31 31 30 29 28 26 25 23
14 14 13 12 12 11 10 11 12 11 12 13 13 13 15 13 14 13 13 14 14 14 17 22 17 13 15 14 14 15 15 17 16 27 31 31 30 29 28 27 26 25 23
14 13 13 13 12 11 11 11 12 12 12 13 13 14 15 14 15 13 14 15 14 15 15 17 18 15 13 12 14 14 15 13 16 21 25 26 27 27 27 27 26 25 23
15 14 14 13 12 11 11 11 11 11 12 13 14 14 15 14 15 15 15 16 15 15 15 15 16 16 14 12 11 12 13 11 13 14 18 21 24 25 25 25 25 24 23
16 14 13 12 11 10 10 11 11 12 13 14 14 14 14 17 20 18 15 13 13 13 13 14 15 14 13 11 11 11 14 13 12 11 12 12 12 11 13 18 21 22 22
14 14 14 13 12 11 16 19 15 12 12 13 13 12 12 15 19 24 26 26 23 18 15 14 14 14 15 14 12 12 12 14 13 6 8 11 9 11 10 10 18 22 22
14 14 13 13 13 14 19 19 20 13 11 10 10 10 10 11 17 11 20 26 24 24 23 16 15 15 16 14 14 16 14 15 15 10 10 14 10 12 11 13 22 23 23
14 14 13 14 12 14 18 19 19 13 9 9 9 10 11 11 13 16 16 15 11 12 16 13 13 15 15 14 14 15 15 14 13 11 10 12 10 10 12 11 20 23 24
14 14 12 13 13 13 17 18 17 8 8 9 10 10 11 11 19 24 17 12 11 11 17 21 22 21 24 24 19 11 10 11 12 10 7 7 8 9 10 10 14 21 23
14 13 12 13 13 12 15 17 17 7 8 9 8 9 15 15 20 23 14 10 11 13 11 10 13 17 15 15 19 11 9 10 10 7 5 5 6 5 5 5 7 8 12
Wind_Direction
176 171 155 60 18 6 -0 353 347 340 332 324 318 309 304 303 302 301 302 312 316 317 317 317 316 315 314 312 310 309 307 304 301 297 293 290 286 283 282 280 278 277 276
187 184 188 205 276 306 310 310 307 303 297 295 293 291 290 291 289 291 295 301 309 314 315 315 314 312 311 309 308 307 305 302 299 296 292 289 285 282 278 277 275 273 272
197 194 197 215 239 256 268 277 282 281 275 276 276 281 282 279 281 285 291 293 295 306 312 314 313 310 309 308 307 306 303 300 298 295 290 287 282 278 276 274 272 270 268
204 200 203 220 236 243 250 258 263 262 261 265 269 275 275 274 276 282 285 286 290 295 302 310 311 310 309 307 305 304 302 300 297 294 289 285 281 276 272 270 268 267 265
208 204 209 223 232 233 239 249 251 232 257 269 272 268 263 264 271 279 279 282 284 288 293 303 308 310 308 306 305 304 302 300 297 293 289 284 280 275 270 267 265 264 262
208 207 212 223 227 224 231 236 246 246 243 260 279 280 269 266 267 265 268 275 280 287 294 296 298 302 305 305 305 303 301 299 297 294 289 285 279 274 268 264 261 260 259
207 205 209 217 219 216 224 225 234 259 260 247 272 281 271 258 251 252 255 264 272 281 286 290 293 294 297 301 303 302 299 298 296 295 290 284 279 274 268 262 259 257 255
206 206 208 210 214 216 225 226 217 237 260 254 260 306 311 289 250 248 247 257 266 272 279 288 290 291 292 293 294 299 298 296 295 294 292 286 280 274 267 260 257 254 252
205 205 206 209 212 210 221 224 215 219 246 251 206 226 282 293 306 256 240 254 256 258 270 279 284 287 291 293 292 295 294 294 294 295 293 290 283 277 269 261 257 252 249
203 206 208 209 212 214 217 225 221 215 224 251 237 221 224 238 283 301 277 254 253 266 266 279 284 286 287 288 288 293 294 294 293 294 295 294 290 283 273 264 259 252 247
203 205 208 209 212 216 219 222 223 221 221 235 238 231 238 245 237 261 291 296 283 260 263 264 273 279 283 284 284 288 292 294 295 297 298 297 296 294 284 273 266 257 247
203 207 209 210 213 216 220 224 226 227 231 235 242 239 237 243 249 250 273 290 294 287 265 262 268 274 277 280 283 291 294 295 297 299 300 299 299 298 296 289 279 268 255
205 208 207 209 213 218 223 225 224 231 232 236 241 245 245 247 252 258 270 283 289 291 275 259 257 266 274 278 281 290 293 295 297 298 300 300 300 297 296 297 290 281 269
206 198 203 209 213 217 223 223 227 233 234 238 246 246 250 254 253 255 262 276 288 293 287 267 251 254 268 275 281 288 291 293 295 297 298 298 297 296 293 294 295 290 283
198 197 200 206 213 218 222 221 232 236 237 242 248 251 253 258 257 256 258 260 271 288 294 291 276 253 268 275 280 284 282 288 292 294 295 295 295 294 292 291 291 291 288
196 192 199 205 211 217 221 223 235 239 241 248 250 252 255 259 260 261 261 261 259 267 281 287 284 276 276 281 283 285 285 289 292 294 293 292 291 291 291 288 285 287 285
198 200 202 205 212 218 219 225 236 239 244 253 254 255 259 260 264 265 265 264 264 265 275 284 283 280 274 275 279 279 279 279 283 288 289 290 288 286 285 285 282 284 282
199 201 201 206 214 218 219 225 239 244 245 253 257 258 262 265 265 266 268 268 269 266 270 280 284 282 276 275 274 274 280 281 280 284 287 287 285 283 281 280 278 279 279
198 199 200 207 214 218 221 229 236 244 247 251 256 258 262 265 268 268 269 271 271 271 267 272 279 280 278 275 276 277 275 275 278 281 286 287 286 283 281 278 275 274 275
197 198 202 208 213 217 223 231 236 244 249 253 255 256 258 259 264 268 271 269 270 270 270 271 276 279 279 274 271 279 283 278 277 281 282 282 282 282 281 278 274 271 270
198 197 199 206 212 216 223 228 236 243 248 255 258 256 256 261 267 275 279 278 275 277 277 276 279 284 284 285 283 281 281 283 278 273 275 275 277 277 279 278 273 269 266
195 192 198 204 212 220 235 243 245 241 245 252 258 259 258 268 277 284 289 292 290 288 289 289 290 288 288 287 285 281 282 283 284 261 263 274 270 273 270 265 266 264 260
194 194 199 203 215 226 237 248 256 257 251 251 253 260 269 271 285 283 286 289 289 289 291 292 289 286 287 286 283 279 273 270 271 269 273 277 271 271 268 263 263 258 255
195 198 201 205 215 228 236 247 256 259 255 250 249 253 262 269 275 283 280 282 271 272 280 283 274 276 278 279 273 273 274 273 270 266 258 269 270 269 269 260 261 254 249
195 198 200 203 212 227 234 245 254 251 255 254 253 255 261 266 282 291 295 291 284 282 293 295 297 300 301 303 302 298 291 285 283 279 256 257 270 276 268 257 249 248 243
198 195 201 204 209 219 230 240 249 245 254 260 260 258 271 281 291 297 299 294 294 295 292 293 299 300 296 294 298 294 286 280 280 280 248 246 264 278 282 255 242 240 236
Height
1562 1561 1560 1558 1557 1555 1553 1551 1548 1546 1543 1541 1538 1535 1532 1529 1526 1523 1520 1517 1515 1512 1511 1509 1507 1505 1503 1500 1498 1495 1493 1490 1488 1487 1486 1485 1484 1484 1485 1485 1486 1487 1489
1559 1557 1556 1554 1552 1550 1548 1545 1543 1540 1537 1535 1532 1529 1526 1524 1521 1518 1514 1511 1509 1506 1504 1503 1501 1499 1496 1494 1491 1489 1486 1483 1480 1478 1477 1476 1475 1475 1476 1476 1477 1478 1480
1555 1553 1552 1550 1547 1545 1542 1540 1537 1534 1531 1529 1526 1524 1521 1518 1515 1512 1509 1505 1503 1501 1498 1496 1494 1492 1490 1487 1484 1481 1478 1475 1472 1470 1468 1466 1465 1465 1466 1467 1468 1469 1471
1550 1548 1547 1545 1542 1540 1537 1535 1533 1530 1527 1524 1521 1519 1516 1512 1509 1506 1503 1500 1498 1495 1493 1490 1488 1486 1483 1480 1477 1474 1471 1467 1464 1461 1458 1456 1455 1455 1456 1457 1458 1460 1461
1544 1543 1542 1540 1538 1535 1533 1530 1527 1525 1521 1518 1515 1512 1510 1506 1504 1501 1498 1495 1493 1490 1487 1484 1481 1478 1475 1473 1470 1466 1463 1459 1455 1451 1449 1446 1445 1445 1445 1446 1448 1450 1452
1539 1538 1536 1535 1532 1530 1528 1525 1523 1520 1517 1513 1509 1506 1503 1500 1497 1495 1492 1490 1487 1485 1481 1478 1475 1471 1468 1465 1461 1458 1454 1450 1446 1442 1439 1436 1435 1434 1434 1435 1437 1439 1442
1533 1532 1531 1529 1527 1525 1523 1521 1518 1516 1513 1509 1503 1497 1494 1492 1490 1487 1485 1483 1481 1479 1476 1472 1468 1465 1460 1456 1453 1449 1445 1442 1437 1433 1429 1426 1424 1423 1423 1424 1426 1429 1432
1526 1525 1525 1523 1522 1520 1518 1516 1513 1510 1508 1505 1500 1493 1486 1483 1480 1480 1478 1476 1474 1472 1469 1466 1462 1458 1453 1449 1444 1440 1436 1433 1429 1424 1420 1416 1414 1412 1412 1413 1415 1418 1421
1519 1519 1518 1517 1516 1514 1512 1511 1508 1505 1503 1501 1498 1495 1488 1480 1475 1469 1469 1468 1466 1464 1461 1458 1454 1450 1446 1441 1436 1431 1427 1424 1420 1415 1410 1406 1403 1401 1401 1402 1404 1407 1410
1512 1512 1511 1510 1509 1508 1506 1505 1503 1500 1497 1495 1493 1491 1488 1483 1476 1465 1461 1460 1458 1455 1453 1450 1446 1442 1438 1433 1428 1424 1419 1415 1412 1407 1401 1396 1393 1391 1390 1391 1393 1396 1399
1505 1504 1504 1503 1502 1501 1500 1498 1497 1494 1492 1489 1487 1484 1482 1479 1475 1469 1457 1450 1449 1446 1444 1441 1437 1433 1428 1424 1419 1415 1411 1408 1403 1398 1392 1387 1383 1380 1380 1380 1382 1385 1389
1497 1497 1496 1496 1495 1494 1493 1492 1490 1488 1486 1483 1481 1478 1476 1473 1469 1465 1456 1446 1439 1435 1434 1431 1428 1424 1420 1415 1411 1407 1403 1399 1395 1390 1385 1380 1376 1372 1370 1369 1371 1373 1377
1488 1489 1488 1488 1487 1487 1486 1484 1483 1481 1479 1476 1474 1471 1469 1465 1463 1459 1452 1442 1433 1425 1423 1420 1418 1415 1412 1407 1403 1399 1395 1391 1387 1382 1378 1373 1369 1365 1362 1360 1361 1363 1366
1480 1481 1480 1480 1480 1479 1478 1477 1475 1474 1472 1469 1466 1464 1461 1458 1455 1452 1447 1440 1429 1417 1413 1411 1409 1406 1403 1399 1395 1391 1386 1382 1378 1374 1370 1366 1362 1359 1356 1354 1353 1354 1356
1472 1472 1472 1472 1472 1472 1471 1469 1467 1466 1464 1461 1458 1456 1453 1450 1447 1444 1440 1435 1429 1416 1401 1401 1399 1397 1395 1391 1387 1383 1378 1373 1370 1366 1362 1358 1355 1352 1350 1348 1347 1347 1349
1462 1463 1463 1464 1464 1464 1463 1462 1460 1458 1456 1453 1450 1447 1444 1442 1439 1435 1431 1427 1421 1414 1399 1391 1390 1388 1385 1382 1379 1375 1370 1366 1361 1357 1353 1350 1348 1345 1343 1342 1342 1342 1343
1452 1453 1454 1455 1455 1455 1455 1454 1452 1450 1447 1445 1442 1439 1436 1434 1430 1426 1422 1417 1412 1407 1396 1384 1383 1379 1376 1373 1369 1366 1361 1357 1351 1347 1344 1342 1340 1338 1337 1336 1336 1336 1337
1442 1443 1445 1446 1447 1447 1447 1445 1444 1442 1439 1436 1434 1431 1427 1425 1422 1418 1413 1408 1403 1398 1391 1379 1373 1371 1367 1364 1360 1356 1352 1348 1343 1338 1335 1333 1331 1329 1329 1329 1329 1330 1331
1431 1433 1435 1437 1438 1439 1438 1437 1436 1433 1431 1428 1425 1422 1420 1417 1413 1409 1405 1399 1394 1389 1383 1375 1366 1362 1358 1355 1351 1347 1343 1338 1334 1330 1326 1323 1321 1320 1320 1320 1321 1323 1325
1421 1423 1426 1428 1429 1430 1430 1429 1427 1425 1422 1420 1417 1415 1412 1409 1405 1401 1396 1390 1386 1380 1375 1368 1360 1354 1350 1346 1343 1338 1333 1329 1325 1322 1318 1315 1312 1311 1311 1312 1313 1315 1318
1411 1414 1417 1419 1420 1421 1421 1421 1419 1417 1414 1412 1409 1407 1404 1401 1397 1394 1389 1384 1379 1373 1367 1361 1353 1347 1343 1339 1336 1331 1326 1321 1316 1314 1310 1307 1305 1302 1302 1303 1305 1308 1311
1401 1404 1406 1409 1411 1412 1413 1412 1411 1408 1406 1403 1401 1398 1396 1393 1390 1385 1382 1377 1373 1367 1361 1355 1348 1342 1336 1332 1327 1323 1319 1314 1308 1306 1304 1299 1298 1295 1294 1295 1297 1300 1304
1391 1394 1397 1400 1402 1404 1405 1404 1403 1401 1398 1396 1393 1391 1388 1385 1382 1377 1372 1368 1364 1359 1355 1350 1341 1334 1328 1324 1319 1314 1310 1306 1301 1299 1298 1291 1290 1287 1287 1287 1290 1293 1296
1381 1385 1388 1391 1393 1395 1396 1396 1395 1393 1390 1388 1386 1384 1381 1377 1374 1369 1364 1359 1355 1351 1346 1340 1333 1326 1321 1315 1311 1306 1302 1297 1293 1291 1290 1285 1282 1280 1279 1279 1281 1285 1289
1371 1375 1379 1382 1384 1387 1388 1388 1387 1385 1383 1380 1379 1377 1374 1370 1366 1363 1359 1353 1347 1342 1337 1332 1327 1320 1314 1308 1303 1299 1294 1291 1286 1284 1283 1280 1276 1274 1272 1272 1274 1278 1282
1361 1366 1370 1373 1376 1378 1380 1380 1379 1377 1375 1373 1371 1369 1367 1363 1360 1357 1353 1347 1340 1334 1328 1322 1317 1311 1305 1299 1295 1291 1287 1284 1280 1277 1275 1275 1272 1272 1269 1267 1269 1272 1275